This demonstration page uses our WeatherBlox Daily Observations layout. Learn more.

38.89511, -77.03637

Hourly Observations for March 17, 2015

Temp ( °F °C ) Dew Point ( °F °C ) Humidity (%) Winds ( mph kmh ) Pressure ( in mb ) Visibility ( mi km ) Precip ( " mm )
12:52 am 00:52 Cloudy 52 11 39 4 62 62 S 7 11 29.83 1010 10 16.09344 0 0
1:52 am 01:52 Mostly Cloudy 50 10 39 4 67 67 S 8 13 29.8 1009 10 16.09344 0 0
2:52 am 02:52 Cloudy 48 9 39 4 71 71 S 7 11 29.77 1008 10 16.09344 0 0
3:52 am 03:52 Mostly Cloudy 48 9 39 4 71 71 S 8 13 29.74 1007 10 16.09344 0 0
4:52 am 04:52 Cloudy 50 10 39 4 67 67 S 8 13 29.74 1007 10 16.09344 0 0
5:52 am 05:52 Cloudy 48 9 39 4 71 71 S 10 17 29.71 1006 10 16.09344 0 0
6:52 am 06:52 Mostly Cloudy 46 8 39 4 76 76 SSW 6 9 29.71 1006 10 16.09344 0 0
7:52 am 07:52 Mostly Cloudy 48 9 39 4 71 71 S 7 11 29.68 1005 10 16.09344 0 0
8:52 am 08:52 Mostly Cloudy 50 10 41 5 71 71 S 7 11 29.68 1005 10 16.09344 0 0
9:52 am 09:52 Mostly Cloudy 54 12 43 6 67 67 SW 6 9 29.68 1005 10 16.09344 0 0
10:52 am 10:52 Cloudy 72 22 46 8 41 41 WNW 13 20 29.68 1005 10 16.09344 0 0
11:37 am 11:37 Mostly Cloudy 70 21 46 8 43 43 WNW 16 26 29.68 1005 10 16.09344 0 0
11:52 am 11:52 Mostly Cloudy 70 21 46 8 43 43 WNW 14 22 29.68 1005 10 16.09344 0 0
12:52 pm 12:52 Cloudy 72 22 46 8 41 41 WNW 15 24 29.68 1005 10 16.09344 0 0
1:52 pm 13:52 Cloudy 68 20 45 7 43 43 NW 17 28 29.71 1006 10 16.09344 0 0
2:52 pm 14:52 Mostly Cloudy 70 21 43 6 38 38 NW 13 20 29.74 1007 10 16.09344 0 0
3:52 pm 15:52 Mostly Cloudy 66 19 36 2 32 32 NNW 22 35 29.74 1007 10 16.09344 0 0
4:52 pm 16:52 Mostly Cloudy 66 19 32 0 28 28 WNW 21 33 29.77 1008 10 16.09344 0 0
5:52 pm 17:52 Partly Cloudy 61 16 28 -2 29 29 NW 21 33 29.83 1010 10 16.09344 0 0
6:52 pm 18:52 Partly Cloudy 55 13 27 -3 33 33 NNW 25 41 29.88 1012 10 16.09344 0 0
7:52 pm 19:52 Partly Cloudy 52 11 21 -6 30 30 NNW 29 46 29.94 1014 10 16.09344 0 0
8:52 pm 20:52 Mostly Clear 48 9 19 -7 32 32 NW 18 30 29.97 1015 10 16.09344 0 0
9:52 pm 21:52 Mostly Clear 48 9 18 -8 29 29 NNW 17 28 30.03 1017 10 16.09344 0 0
10:52 pm 22:52 Clear 45 7 14 -10 29 29 NNW 16 26 30.06 1018 10 16.09344 0 0
11:52 pm 23:52 Clear 43 6 10 -12 26 26 NW 21 33 30.09 1019 10 16.09344 0 0

Powered by AerisWeather